Time,TemperatureF,DewpointF,PressureIn,WindDirection,WindDirectionDegrees,WindSpeedMPH,WindSpeedGustMPH,Humidity,HourlyPrecipIn,Conditions,Clouds,dailyrainin,SoftwareType,DateUTC
2013-05-12 00:01:00,69.1,63.0,29.35,SE,135,0.0,0.0,81,0.00,,,0.00,VWS V14.01,2013-05-12 04:01:00,
2013-05-12 00:02:00,69.1,63.0,29.35,SE,135,0.0,0.0,81,0.00,,,0.00,VWS V14.01,2013-05-12 04:02:00,
2013-05-12 00:05:00,69.1,63.0,29.35,SE,135,0.0,0.0,81,0.00,,,0.00,VWS V14.01,2013-05-12 04:05:00,
2013-05-12 00:10:00,69.1,63.0,29.35,SE,135,0.0,0.0,81,0.00,,,0.00,VWS V14.01,2013-05-12 04:10:00,
2013-05-12 00:15:00,69.3,62.8,29.35,SE,135,0.0,0.0,80,0.00,,,0.00,VWS V14.01,2013-05-12 04:15:00,
2013-05-12 00:20:00,69.3,63.2,29.35,SE,135,0.0,0.0,81,0.00,,,0.00,VWS V14.01,2013-05-12 04:20:00,
2013-05-12 00:25:00,69.1,63.0,29.35,SE,135,0.0,0.0,81,0.00,,,0.00,VWS V14.01,2013-05-12 04:25:00,
2013-05-12 00:30:00,69.1,63.0,29.35,SE,135,0.0,0.0,81,0.00,,,0.00,VWS V14.01,2013-05-12 04:30:00,
2013-05-12 00:35:00,69.1,63.0,29.35,SE,135,0.0,0.0,81,0.00,,,0.00,VWS V14.01,2013-05-12 04:35:00,
2013-05-12 00:40:00,69.1,63.0,29.35,SE,135,0.0,0.0,81,0.00,,,0.00,VWS V14.01,2013-05-12 04:40:00,
2013-05-12 00:45:00,68.9,62.8,29.35,SE,135,0.0,0.0,81,0.00,,,0.00,VWS V14.01,2013-05-12 04:45:00,
2013-05-12 00:50:00,68.9,62.8,29.35,SSW,202,0.0,0.0,81,0.00,,,0.00,VWS V14.01,2013-05-12 04:50:00,
2013-05-12 00:55:00,68.9,62.8,29.35,SSW,202,0.0,0.0,81,0.00,,,0.00,VWS V14.01,2013-05-12 04:55:00,
2013-05-12 01:01:00,68.9,62.8,29.35,South,180,0.0,0.0,81,0.00,,,0.00,VWS V14.01,2013-05-12 05:01:00,
2013-05-12 01:06:00,68.9,62.8,29.35,South,180,0.0,0.0,81,0.00,,,0.00,VWS V14.01,2013-05-12 05:06:00,
2013-05-12 01:11:00,68.9,62.8,29.35,South,180,0.0,0.0,81,0.00,,,0.00,VWS V14.01,2013-05-12 05:11:00,
2013-05-12 01:16:00,68.9,62.8,29.38,South,180,0.0,0.0,81,0.00,,,0.00,VWS V14.01,2013-05-12 05:16:00,
2013-05-12 01:21:00,68.9,62.8,29.38,South,180,0.0,0.0,81,0.00,,,0.00,VWS V14.01,2013-05-12 05:21:00,
2013-05-12 01:26:00,68.7,62.7,29.38,South,180,0.0,0.0,81,0.00,,,0.00,VWS V14.01,2013-05-12 05:26:00,
2013-05-12 01:31:00,68.7,62.7,29.38,South,180,0.0,0.0,81,0.00,,,0.00,VWS V14.01,2013-05-12 05:31:00,
2013-05-12 01:36:00,68.7,62.7,29.38,South,180,0.0,0.0,81,0.00,,,0.00,VWS V14.01,2013-05-12 05:36:00,
2013-05-12 01:41:00,68.7,62.7,29.38,South,180,0.0,0.0,81,0.00,,,0.00,VWS V14.01,2013-05-12 05:41:00,
2013-05-12 01:46:00,68.7,62.7,29.38,South,180,0.0,0.0,81,0.00,,,0.00,VWS V14.01,2013-05-12 05:46:00,
2013-05-12 01:51:00,68.7,62.7,29.38,South,180,0.0,0.0,81,0.00,,,0.00,VWS V14.01,2013-05-12 05:51:00,
2013-05-12 01:56:00,68.7,62.7,29.38,South,180,0.0,0.0,81,0.00,,,0.00,VWS V14.01,2013-05-12 05:56:00,
2013-05-12 02:01:00,68.5,62.5,29.38,South,180,0.0,0.0,81,0.00,,,0.00,VWS V14.01,2013-05-12 06:01:00,
2013-05-12 02:06:00,68.5,62.5,29.38,South,180,0.0,0.0,81,0.00,,,0.00,VWS V14.01,2013-05-12 06:06:00,
2013-05-12 02:11:00,68.4,62.3,29.38,South,180,0.0,0.0,81,0.00,,,0.00,VWS V14.01,2013-05-12 06:11:00,
2013-05-12 02:16:00,68.4,62.3,29.38,South,180,0.0,0.0,81,0.00,,,0.00,VWS V14.01,2013-05-12 06:16:00,
2013-05-12 02:21:00,68.4,62.3,29.38,South,180,0.0,0.0,81,0.00,,,0.00,VWS V14.01,2013-05-12 06:21:00,
2013-05-12 02:26:00,68.2,62.1,29.38,South,180,0.0,0.0,81,0.00,,,0.00,VWS V14.01,2013-05-12 06:26:00,
2013-05-12 02:31:00,68.2,62.1,29.35,South,180,0.0,0.0,81,0.00,,,0.00,VWS V14.01,2013-05-12 06:31:00,
2013-05-12 02:36:00,68.2,62.1,29.35,South,180,0.0,0.0,81,0.00,,,0.00,VWS V14.01,2013-05-12 06:36:00,
2013-05-12 02:41:00,68.2,62.1,29.35,South,180,0.0,0.0,81,0.00,,,0.00,VWS V14.01,2013-05-12 06:41:00,
2013-05-12 02:46:00,68.2,62.1,29.35,South,180,0.0,0.0,81,0.00,,,0.00,VWS V14.01,2013-05-12 06:46:00,
2013-05-12 02:51:00,68.0,62.0,29.35,South,180,0.0,0.0,81,0.00,,,0.00,VWS V14.01,2013-05-12 06:51:00,
2013-05-12 02:56:00,68.0,62.0,29.35,South,180,0.0,0.0,81,0.00,,,0.00,VWS V14.01,2013-05-12 06:56:00,
2013-05-12 03:01:00,68.0,62.0,29.38,South,180,0.0,0.0,81,0.00,,,0.00,VWS V14.01,2013-05-12 07:01:00,
2013-05-12 03:06:00,67.8,61.8,29.38,South,180,0.0,0.0,81,0.00,,,0.00,VWS V14.01,2013-05-12 07:06:00,
2013-05-12 03:12:00,67.6,61.6,29.38,South,180,0.0,0.0,81,0.00,,,0.00,VWS V14.01,2013-05-12 07:12:00,
2013-05-12 03:17:00,67.6,61.6,29.38,South,180,0.0,0.0,81,0.00,,,0.00,VWS V14.01,2013-05-12 07:17:00,
2013-05-12 03:22:00,67.6,61.6,29.38,South,180,0.0,0.0,81,0.00,,,0.00,VWS V14.01,2013-05-12 07:22:00,
2013-05-12 03:27:00,67.5,61.4,29.38,South,180,0.0,0.0,81,0.00,,,0.00,VWS V14.01,2013-05-12 07:27:00,
2013-05-12 03:32:00,67.5,61.4,29.38,South,180,0.0,0.0,81,0.00,,,0.00,VWS V14.01,2013-05-12 07:32:00,
2013-05-12 03:37:00,67.3,61.3,29.38,South,180,0.0,0.0,81,0.00,,,0.00,VWS V14.01,2013-05-12 07:37:00,
2013-05-12 03:42:00,67.3,61.3,29.38,South,180,0.0,0.0,81,0.00,,,0.00,VWS V14.01,2013-05-12 07:42:00,
2013-05-12 03:47:00,67.3,61.3,29.38,South,180,0.0,0.0,81,0.00,,,0.00,VWS V14.01,2013-05-12 07:47:00,
2013-05-12 03:52:00,67.3,61.3,29.38,South,180,0.0,0.0,81,0.00,,,0.00,VWS V14.01,2013-05-12 07:52:00,
2013-05-12 03:57:00,67.3,61.3,29.38,South,180,0.0,0.0,81,0.00,,,0.00,VWS V14.01,2013-05-12 07:57:00,
2013-05-12 04:02:00,67.1,61.1,29.38,South,180,0.0,0.0,81,0.00,,,0.00,VWS V14.01,2013-05-12 08:02:00,
2013-05-12 04:07:00,67.1,61.1,29.38,South,180,0.0,0.0,81,0.00,,,0.00,VWS V14.01,2013-05-12 08:07:00,
2013-05-12 04:12:00,66.9,60.9,29.38,South,180,0.0,0.0,81,0.00,,,0.00,VWS V14.01,2013-05-12 08:12:00,
2013-05-12 04:17:00,66.9,60.9,29.38,South,180,0.0,0.0,81,0.00,,,0.00,VWS V14.01,2013-05-12 08:17:00,
2013-05-12 04:22:00,66.9,60.9,29.38,South,180,0.0,0.0,81,0.00,,,0.00,VWS V14.01,2013-05-12 08:22:00,
2013-05-12 04:27:00,66.9,60.9,29.38,SSW,202,0.0,0.0,81,0.00,,,0.00,VWS V14.01,2013-05-12 08:27:00,
2013-05-12 04:32:00,66.7,60.7,29.38,SSW,202,0.0,0.0,81,0.00,,,0.00,VWS V14.01,2013-05-12 08:32:00,
2013-05-12 04:37:00,66.9,60.9,29.38,SSE,158,0.0,0.0,81,0.00,,,0.00,VWS V14.01,2013-05-12 08:37:00,
2013-05-12 04:42:00,66.7,60.7,29.38,SSW,202,0.0,0.0,81,0.00,,,0.00,VWS V14.01,2013-05-12 08:42:00,
2013-05-12 04:47:00,66.7,61.1,29.38,SSW,202,0.0,0.0,82,0.00,,,0.00,VWS V14.01,2013-05-12 08:47:00,
2013-05-12 04:52:00,66.6,60.6,29.38,West,270,0.0,0.0,81,0.00,,,0.00,VWS V14.01,2013-05-12 08:52:00,
2013-05-12 04:57:00,66.4,60.4,29.38,NNW,338,0.0,0.0,81,0.00,,,0.00,VWS V14.01,2013-05-12 08:57:00,
2013-05-12 05:02:00,66.4,60.4,29.38,NNW,338,0.0,0.0,81,0.00,,,0.00,VWS V14.01,2013-05-12 09:02:00,
2013-05-12 05:07:00,66.4,60.4,29.38,North,0,0.0,0.0,81,0.00,,,0.00,VWS V14.01,2013-05-12 09:07:00,
2013-05-12 05:12:00,66.4,60.4,29.38,North,0,0.0,0.0,81,0.00,,,0.00,VWS V14.01,2013-05-12 09:12:00,
2013-05-12 05:17:00,66.2,60.2,29.38,North,0,0.0,0.0,81,0.00,,,0.00,VWS V14.01,2013-05-12 09:17:00,
2013-05-12 05:23:00,66.2,60.2,29.38,WNW,292,0.0,0.0,81,0.00,,,0.00,VWS V14.01,2013-05-12 09:23:00,
2013-05-12 05:28:00,66.0,60.0,29.38,WNW,292,0.0,0.0,81,0.00,,,0.00,VWS V14.01,2013-05-12 09:28:00,
2013-05-12 05:33:00,65.8,59.8,29.38,WNW,292,0.0,0.0,81,0.00,,,0.00,VWS V14.01,2013-05-12 09:33:00,
2013-05-12 05:38:00,65.8,59.5,29.38,South,180,0.0,0.0,80,0.00,,,0.00,VWS V14.01,2013-05-12 09:38:00,
2013-05-12 05:43:00,65.5,59.2,29.38,WNW,292,0.0,0.0,80,0.00,,,0.00,VWS V14.01,2013-05-12 09:43:00,
2013-05-12 05:48:00,65.5,59.2,29.41,NW,315,0.0,0.0,80,0.00,,,0.00,VWS V14.01,2013-05-12 09:48:00,
2013-05-12 05:53:00,65.1,58.5,29.41,SW,225,0.0,0.0,79,0.00,,,0.00,VWS V14.01,2013-05-12 09:53:00,
2013-05-12 05:58:00,65.1,58.5,29.41,NW,315,0.0,0.0,79,0.00,,,0.00,VWS V14.01,2013-05-12 09:58:00,
2013-05-12 06:03:00,64.6,57.6,29.38,NW,315,0.0,0.0,78,0.00,,,0.00,VWS V14.01,2013-05-12 10:03:00,
2013-05-12 06:08:00,64.4,57.0,29.38,ESE,112,0.0,0.0,77,0.00,,,0.00,VWS V14.01,2013-05-12 10:08:00,
2013-05-12 06:13:00,64.2,56.9,29.38,West,270,0.0,0.0,77,0.00,,,0.00,VWS V14.01,2013-05-12 10:13:00,
2013-05-12 06:18:00,64.0,56.7,29.41,NW,315,0.0,0.0,77,0.00,,,0.00,VWS V14.01,2013-05-12 10:18:00,
2013-05-12 06:23:00,63.7,56.3,29.41,SSW,202,0.0,0.0,77,0.00,,,0.00,VWS V14.01,2013-05-12 10:23:00,
2013-05-12 06:28:00,63.9,56.9,29.41,SW,225,0.0,0.0,78,0.00,,,0.00,VWS V14.01,2013-05-12 10:28:00,
2013-05-12 06:33:00,63.7,56.7,29.41,West,270,0.0,0.0,78,0.00,,,0.00,VWS V14.01,2013-05-12 10:33:00,
2013-05-12 06:38:00,63.5,56.5,29.41,NW,315,0.0,0.0,78,0.00,,,0.00,VWS V14.01,2013-05-12 10:38:00,
2013-05-12 06:43:00,63.5,56.9,29.41,WSW,248,0.0,0.0,79,0.00,,,0.00,VWS V14.01,2013-05-12 10:43:00,
2013-05-12 06:48:00,63.5,56.9,29.41,NNE,22,0.0,0.0,79,0.00,,,0.00,VWS V14.01,2013-05-12 10:48:00,
2013-05-12 06:53:00,63.3,56.7,29.41,East,90,0.0,0.0,79,0.00,,,0.00,VWS V14.01,2013-05-12 10:53:00,
2013-05-12 06:58:00,63.3,56.7,29.41,WSW,248,0.0,0.0,79,0.00,,,0.00,VWS V14.01,2013-05-12 10:58:00,
2013-05-12 07:03:00,63.5,56.9,29.41,SSE,158,0.0,0.0,79,0.00,,,0.00,VWS V14.01,2013-05-12 11:03:00,
2013-05-12 07:08:00,63.3,57.0,29.41,West,270,0.0,0.0,80,0.00,,,0.00,VWS V14.01,2013-05-12 11:08:00,
2013-05-12 07:13:00,63.3,56.7,29.41,WSW,248,0.0,0.0,79,0.00,,,0.00,VWS V14.01,2013-05-12 11:13:00,
2013-05-12 07:18:00,63.3,56.7,29.41,SE,135,0.0,0.0,79,0.00,,,0.00,VWS V14.01,2013-05-12 11:18:00,
2013-05-12 07:23:00,63.3,56.7,29.41,South,180,0.0,0.0,79,0.00,,,0.00,VWS V14.01,2013-05-12 11:23:00,
2013-05-12 07:28:00,63.3,56.7,29.41,NW,315,0.0,0.0,79,0.00,,,0.00,VWS V14.01,2013-05-12 11:28:00,
2013-05-12 07:33:00,63.0,55.3,29.41,WSW,248,0.0,0.0,76,0.00,,,0.00,VWS V14.01,2013-05-12 11:33:00,
2013-05-12 07:39:00,63.0,55.3,29.41,NNW,338,0.0,0.0,76,0.00,,,0.00,VWS V14.01,2013-05-12 11:39:00,
2013-05-12 07:44:00,63.3,56.0,29.44,SW,225,0.0,0.0,77,0.00,,,0.00,VWS V14.01,2013-05-12 11:44:00,
2013-05-12 07:49:00,63.5,56.5,29.44,SSE,158,0.0,0.0,78,0.00,,,0.00,VWS V14.01,2013-05-12 11:49:00,
2013-05-12 07:54:00,63.5,56.5,29.44,South,180,0.0,0.0,78,0.00,,,0.00,VWS V14.01,2013-05-12 11:54:00,
2013-05-12 07:59:00,63.3,56.3,29.44,South,180,0.0,0.0,78,0.00,,,0.00,VWS V14.01,2013-05-12 11:59:00,
2013-05-12 08:04:00,63.1,55.5,29.44,WSW,248,0.0,0.0,76,0.00,,,0.00,VWS V14.01,2013-05-12 12:04:00,
2013-05-12 08:09:00,63.1,55.5,29.44,East,90,0.0,0.0,76,0.00,,,0.00,VWS V14.01,2013-05-12 12:09:00,
2013-05-12 08:14:00,63.1,55.5,29.44,SE,135,0.0,0.0,76,0.00,,,0.00,VWS V14.01,2013-05-12 12:14:00,
2013-05-12 08:19:00,63.3,55.6,29.44,SE,135,0.0,0.0,76,0.00,,,0.00,VWS V14.01,2013-05-12 12:19:00,
2013-05-12 08:24:00,63.3,55.6,29.44,SSE,158,0.0,0.0,76,0.00,,,0.00,VWS V14.01,2013-05-12 12:24:00,
2013-05-12 08:29:00,63.5,55.8,29.44,SW,225,0.0,0.0,76,0.00,,,0.00,VWS V14.01,2013-05-12 12:29:00,
2013-05-12 08:34:00,63.7,55.6,29.44,South,180,0.0,0.0,75,0.00,,,0.00,VWS V14.01,2013-05-12 12:34:00,
2013-05-12 08:39:00,64.2,56.1,29.44,SSW,202,0.0,0.0,75,0.00,,,0.00,VWS V14.01,2013-05-12 12:39:00,
2013-05-12 08:44:00,65.7,57.2,29.44,SSE,158,0.0,0.0,74,0.00,,,0.00,VWS V14.01,2013-05-12 12:44:00,
2013-05-12 08:49:00,66.2,56.9,29.44,SSE,158,0.0,0.0,72,0.00,,,0.00,VWS V14.01,2013-05-12 12:49:00,
2013-05-12 08:54:00,67.3,57.6,29.44,SE,135,0.0,0.0,71,0.00,,,0.00,VWS V14.01,2013-05-12 12:54:00,
2013-05-12 08:59:00,67.6,57.5,29.44,WNW,292,0.0,0.0,70,0.00,,,0.00,VWS V14.01,2013-05-12 12:59:00,
2013-05-12 09:04:00,68.2,57.6,29.44,SW,225,0.0,0.0,69,0.00,,,0.00,VWS V14.01,2013-05-12 13:04:00,
2013-05-12 09:09:00,68.0,57.1,29.44,NE,45,0.0,0.0,68,0.00,,,0.00,VWS V14.01,2013-05-12 13:09:00,
2013-05-12 09:14:00,68.7,58.2,29.44,SSW,202,0.0,0.0,69,0.00,,,0.00,VWS V14.01,2013-05-12 13:14:00,
2013-05-12 09:19:00,70.2,58.7,29.44,West,270,0.0,0.0,67,0.00,,,0.00,VWS V14.01,2013-05-12 13:19:00,
2013-05-12 09:24:00,70.5,58.2,29.44,NW,315,0.0,0.0,65,0.00,,,0.00,VWS V14.01,2013-05-12 13:24:00,
2013-05-12 09:29:00,70.0,57.7,29.44,SE,135,0.0,0.0,65,0.00,,,0.00,VWS V14.01,2013-05-12 13:29:00,
2013-05-12 09:34:00,69.6,57.3,29.44,SE,135,0.0,0.0,65,0.00,,,0.00,VWS V14.01,2013-05-12 13:34:00,
2013-05-12 09:39:00,70.7,57.9,29.44,North,0,0.0,0.0,64,0.00,,,0.00,VWS V14.01,2013-05-12 13:39:00,
2013-05-12 09:45:00,71.8,58.5,29.44,North,0,0.0,0.0,63,0.00,,,0.00,VWS V14.01,2013-05-12 13:45:00,
2013-05-12 09:50:00,72.5,59.2,29.44,NNW,338,0.0,0.0,63,0.00,,,0.00,VWS V14.01,2013-05-12 13:50:00,
2013-05-12 09:55:00,72.0,57.8,29.44,SSW,202,0.0,0.0,61,0.00,,,0.00,VWS V14.01,2013-05-12 13:55:00,
2013-05-12 10:00:00,72.7,58.5,29.44,SE,135,0.0,1.1,61,0.00,,,0.00,VWS V14.01,2013-05-12 14:00:00,
2013-05-12 10:05:00,73.4,58.7,29.44,North,0,0.0,2.7,60,0.00,,,0.00,VWS V14.01,2013-05-12 14:05:00,
2013-05-12 10:10:00,73.4,57.7,29.44,NW,315,0.0,2.2,58,0.00,,,0.00,VWS V14.01,2013-05-12 14:10:00,
2013-05-12 10:15:00,73.9,58.2,29.44,NW,315,3.6,3.6,58,0.00,,,0.00,VWS V14.01,2013-05-12 14:15:00,
2013-05-12 10:20:00,74.3,58.6,29.44,South,180,0.0,2.0,58,0.00,,,0.00,VWS V14.01,2013-05-12 14:20:00,
2013-05-12 10:25:00,74.1,57.9,29.44,SSW,202,0.0,1.3,57,0.00,,,0.00,VWS V14.01,2013-05-12 14:25:00,
2013-05-12 10:30:00,74.3,57.6,29.44,SSW,202,0.0,2.9,56,0.00,,,0.00,VWS V14.01,2013-05-12 14:30:00,
2013-05-12 10:35:00,74.3,58.1,29.44,NW,315,1.1,1.1,57,0.00,,,0.00,VWS V14.01,2013-05-12 14:35:00,
2013-05-12 10:40:00,73.4,56.8,29.44,SW,225,0.0,0.0,56,0.00,,,0.00,VWS V14.01,2013-05-12 14:40:00,
2013-05-12 10:45:00,73.2,57.1,29.44,West,270,2.0,2.0,57,0.00,,,0.00,VWS V14.01,2013-05-12 14:45:00,
2013-05-12 10:50:00,73.0,56.4,29.44,SW,225,0.0,0.0,56,0.00,,,0.00,VWS V14.01,2013-05-12 14:50:00,
2013-05-12 10:55:00,72.5,55.9,29.44,NNW,338,1.1,2.9,56,0.00,,,0.00,VWS V14.01,2013-05-12 14:55:00,
2013-05-12 11:00:00,72.5,55.9,29.44,SW,225,0.0,0.0,56,0.00,,,0.00,VWS V14.01,2013-05-12 15:00:00,
2013-05-12 11:05:00,72.1,55.6,29.44,SSE,158,0.9,2.5,56,0.00,,,0.00,VWS V14.01,2013-05-12 15:05:00,
2013-05-12 11:10:00,72.0,54.4,29.44,WNW,292,0.0,3.1,54,0.00,,,0.00,VWS V14.01,2013-05-12 15:10:00,
2013-05-12 11:15:00,71.6,54.6,29.44,SSW,202,2.5,2.7,55,0.00,,,0.00,VWS V14.01,2013-05-12 15:15:00,
2013-05-12 11:20:00,71.4,53.9,29.44,NW,315,1.1,1.6,54,0.00,,,0.00,VWS V14.01,2013-05-12 15:20:00,
2013-05-12 11:25:00,71.8,54.8,29.44,WSW,248,0.9,0.9,55,0.00,,,0.00,VWS V14.01,2013-05-12 15:25:00,
2013-05-12 11:30:00,71.6,54.6,29.44,ESE,112,1.6,1.6,55,0.00,,,0.00,VWS V14.01,2013-05-12 15:30:00,
2013-05-12 11:36:00,71.4,54.9,29.44,South,180,0.0,0.0,56,0.00,,,0.00,VWS V14.01,2013-05-12 15:36:00,
2013-05-12 11:41:00,71.1,54.1,29.44,NNW,338,2.9,3.8,55,0.00,,,0.00,VWS V14.01,2013-05-12 15:41:00,
2013-05-12 11:46:00,70.7,52.8,29.44,South,180,4.7,4.7,53,0.00,,,0.00,VWS V14.01,2013-05-12 15:46:00,
2013-05-12 11:51:00,70.9,53.9,29.44,SE,135,1.6,1.6,55,0.00,,,0.00,VWS V14.01,2013-05-12 15:51:00,
2013-05-12 11:56:00,70.9,53.4,29.44,NW,315,1.1,1.1,54,0.00,,,0.00,VWS V14.01,2013-05-12 15:56:00,
2013-05-12 12:01:00,71.1,53.6,29.44,WSW,248,0.9,0.9,54,0.00,,,0.00,VWS V14.01,2013-05-12 16:01:00,
2013-05-12 12:06:00,71.1,54.1,29.44,South,180,0.0,2.2,55,0.00,,,0.00,VWS V14.01,2013-05-12 16:06:00,
2013-05-12 12:11:00,71.4,53.9,29.44,NNW,338,0.0,0.0,54,0.00,,,0.00,VWS V14.01,2013-05-12 16:11:00,
2013-05-12 12:16:00,71.4,54.4,29.44,SE,135,0.0,0.0,55,0.00,,,0.00,VWS V14.01,2013-05-12 16:16:00,
2013-05-12 12:21:00,71.8,54.3,29.44,SSW,202,0.0,0.0,54,0.00,,,0.00,VWS V14.01,2013-05-12 16:21:00,
2013-05-12 12:26:00,72.1,54.6,29.44,SSW,202,0.0,0.0,54,0.00,,,0.00,VWS V14.01,2013-05-12 16:26:00,
2013-05-12 12:31:00,72.3,54.8,29.44,WNW,292,0.0,0.0,54,0.00,,,0.00,VWS V14.01,2013-05-12 16:31:00,
2013-05-12 12:36:00,72.9,54.8,29.44,West,270,2.0,2.0,53,0.00,,,0.00,VWS V14.01,2013-05-12 16:36:00,
2013-05-12 12:41:00,73.2,55.1,29.44,NNW,338,2.2,2.2,53,0.00,,,0.00,VWS V14.01,2013-05-12 16:41:00,
2013-05-12 12:46:00,72.9,54.2,29.44,South,180,0.0,0.0,52,0.00,,,0.00,VWS V14.01,2013-05-12 16:46:00,
2013-05-12 12:51:00,72.5,54.4,29.44,SSW,202,2.5,2.5,53,0.00,,,0.00,VWS V14.01,2013-05-12 16:51:00,
2013-05-12 12:56:00,73.0,53.9,29.44,NW,315,3.4,3.4,51,0.00,,,0.00,VWS V14.01,2013-05-12 16:56:00,
2013-05-12 13:01:00,73.4,54.2,29.44,SE,135,0.9,0.9,51,0.00,,,0.00,VWS V14.01,2013-05-12 17:01:00,
2013-05-12 13:06:00,74.1,54.9,29.44,SSE,158,0.0,1.1,51,0.00,,,0.00,VWS V14.01,2013-05-12 17:06:00,
2013-05-12 13:11:00,75.0,54.6,29.44,SW,225,2.5,2.5,49,0.00,,,0.00,VWS V14.01,2013-05-12 17:11:00,
2013-05-12 13:16:00,75.7,54.7,29.44,SSE,158,0.0,0.0,48,0.00,,,0.00,VWS V14.01,2013-05-12 17:16:00,
2013-05-12 13:21:00,76.8,55.7,29.44,NE,45,0.0,2.5,48,0.00,,,0.00,VWS V14.01,2013-05-12 17:21:00,
2013-05-12 13:26:00,77.5,56.3,29.44,South,180,1.1,1.1,48,34.94,,,34.94,VWS V14.01,2013-05-12 17:26:00,
2013-05-12 13:31:00,77.9,54.9,29.44,WSW,248,2.0,2.0,45,0.00,,,0.00,VWS V14.01,2013-05-12 17:31:00,
2013-05-12 13:36:00,78.4,56.0,29.44,SW,225,0.9,0.9,46,0.00,,,0.00,VWS V14.01,2013-05-12 17:36:00,
2013-05-12 13:42:00,79.0,55.8,29.44,SW,225,1.6,1.6,45,0.00,,,0.00,VWS V14.01,2013-05-12 17:42:00,
2013-05-12 13:47:00,78.8,54.4,29.44,SSE,158,0.0,2.7,43,0.00,,,0.00,VWS V14.01,2013-05-12 17:47:00,
2013-05-12 13:52:00,78.6,55.5,29.44,SSE,158,1.6,1.6,45,0.00,,,0.00,VWS V14.01,2013-05-12 17:52:00,
2013-05-12 13:57:00,78.8,55.1,29.44,SSW,202,0.0,0.0,44,0.00,,,0.00,VWS V14.01,2013-05-12 17:57:00,
2013-05-12 14:02:00,77.9,54.3,29.44,SSW,202,0.0,0.0,44,0.00,,,0.00,VWS V14.01,2013-05-12 18:02:00,
2013-05-12 14:07:00,78.3,55.2,29.44,SE,135,1.1,1.1,45,0.00,,,0.00,VWS V14.01,2013-05-12 18:07:00,
2013-05-12 14:12:00,79.0,55.2,29.44,SSE,158,1.3,1.3,44,0.00,,,0.00,VWS V14.01,2013-05-12 18:12:00,
2013-05-12 14:17:00,79.3,55.6,29.44,South,180,1.6,1.6,44,0.00,,,0.00,VWS V14.01,2013-05-12 18:17:00,
2013-05-12 14:22:00,79.2,54.8,29.44,SSE,158,1.6,1.6,43,0.00,,,0.00,VWS V14.01,2013-05-12 18:22:00,
2013-05-12 14:27:00,79.7,55.2,29.44,South,180,0.0,1.1,43,0.00,,,0.00,VWS V14.01,2013-05-12 18:27:00,
2013-05-12 14:32:00,80.1,55.6,29.44,SE,135,2.5,2.5,43,0.00,,,0.00,VWS V14.01,2013-05-12 18:32:00,
2013-05-12 14:37:00,80.1,54.9,29.44,WSW,248,0.0,0.0,42,0.00,,,0.00,VWS V14.01,2013-05-12 18:37:00,
2013-05-12 14:42:00,79.9,54.8,29.44,SSE,158,2.2,2.2,42,0.00,,,0.00,VWS V14.01,2013-05-12 18:42:00,
2013-05-12 14:47:00,79.5,53.8,29.44,SSE,158,1.1,1.1,41,0.00,,,0.00,VWS V14.01,2013-05-12 18:47:00,
2013-05-12 14:52:00,79.3,54.3,29.44,NW,315,0.0,1.3,42,0.00,,,0.00,VWS V14.01,2013-05-12 18:52:00,
2013-05-12 14:57:00,78.8,53.8,29.44,SSW,202,1.6,3.1,42,0.00,,,0.00,VWS V14.01,2013-05-12 18:57:00,
2013-05-12 15:02:00,77.9,53.0,29.44,SSW,202,0.0,4.3,42,0.00,,,0.00,VWS V14.01,2013-05-12 19:02:00,
2013-05-12 15:07:00,77.7,52.2,29.44,SE,135,1.3,1.3,41,0.00,,,0.00,VWS V14.01,2013-05-12 19:07:00,
2013-05-12 15:12:00,77.0,51.5,29.44,SSW,202,1.1,1.1,41,0.00,,,0.00,VWS V14.01,2013-05-12 19:12:00,
2013-05-12 15:17:00,76.5,51.7,29.44,WSW,248,2.5,2.5,42,0.00,,,0.00,VWS V14.01,2013-05-12 19:17:00,
2013-05-12 15:22:00,76.1,50.7,29.44,SSE,158,1.6,2.7,41,0.00,,,0.00,VWS V14.01,2013-05-12 19:22:00,
2013-05-12 15:27:00,75.7,51.0,29.44,West,270,2.7,2.7,42,0.00,,,0.00,VWS V14.01,2013-05-12 19:27:00,
2013-05-12 15:32:00,75.4,50.1,29.44,SSE,158,2.2,2.2,41,0.00,,,0.00,VWS V14.01,2013-05-12 19:32:00,
2013-05-12 15:37:00,75.0,49.8,29.44,WSW,248,4.0,4.0,41,0.00,,,0.00,VWS V14.01,2013-05-12 19:37:00,
2013-05-12 15:42:00,74.5,49.3,29.44,SE,135,0.0,0.9,41,0.00,,,0.00,VWS V14.01,2013-05-12 19:42:00,
2013-05-12 15:47:00,74.1,48.9,29.44,South,180,1.1,5.8,41,0.00,,,0.00,VWS V14.01,2013-05-12 19:47:00,
2013-05-12 15:53:00,74.3,49.1,29.44,SSE,158,0.0,0.0,41,0.00,,,0.00,VWS V14.01,2013-05-12 19:53:00,
2013-05-12 15:58:00,73.8,48.0,29.44,WNW,292,1.6,1.6,40,0.00,,,0.00,VWS V14.01,2013-05-12 19:58:00,
2013-05-12 16:03:00,73.8,48.6,29.44,SSE,158,4.0,4.0,41,0.00,,,0.00,VWS V14.01,2013-05-12 20:03:00,
2013-05-12 16:08:00,73.8,48.0,29.44,South,180,0.9,2.0,40,0.00,,,0.00,VWS V14.01,2013-05-12 20:08:00,
2013-05-12 16:13:00,73.4,47.0,29.44,East,90,0.9,2.5,39,0.00,,,0.00,VWS V14.01,2013-05-12 20:13:00,
2013-05-12 16:18:00,73.4,47.6,29.44,SE,135,1.1,1.1,40,0.00,,,0.00,VWS V14.01,2013-05-12 20:18:00,
2013-05-12 16:23:00,73.2,47.5,29.44,SE,135,2.7,2.7,40,0.00,,,0.00,VWS V14.01,2013-05-12 20:23:00,
2013-05-12 16:28:00,73.0,47.3,29.44,South,180,1.3,1.6,40,0.00,,,0.00,VWS V14.01,2013-05-12 20:28:00,
2013-05-12 16:33:00,72.9,46.5,29.44,SSE,158,1.1,3.1,39,0.00,,,0.00,VWS V14.01,2013-05-12 20:33:00,
2013-05-12 16:38:00,72.5,46.8,29.44,WNW,292,1.6,6.5,40,0.00,,,0.00,VWS V14.01,2013-05-12 20:38:00,
2013-05-12 16:43:00,72.3,46.0,29.44,East,90,2.2,2.2,39,0.00,,,0.00,VWS V14.01,2013-05-12 20:43:00,
2013-05-12 16:48:00,72.3,46.0,29.44,West,270,2.2,2.2,39,0.00,,,0.00,VWS V14.01,2013-05-12 20:48:00,
2013-05-12 16:53:00,72.1,45.8,29.44,South,180,2.0,2.0,39,0.00,,,0.00,VWS V14.01,2013-05-12 20:53:00,
2013-05-12 16:58:00,72.1,45.2,29.44,North,0,0.0,0.0,38,0.00,,,0.00,VWS V14.01,2013-05-12 20:58:00,
2013-05-12 17:03:00,72.1,45.8,29.44,South,180,2.0,2.0,39,0.00,,,0.00,VWS V14.01,2013-05-12 21:03:00,
2013-05-12 17:08:00,71.8,45.5,29.44,SE,135,1.3,1.3,39,0.00,,,0.00,VWS V14.01,2013-05-12 21:08:00,
2013-05-12 17:13:00,71.6,45.4,29.44,North,0,1.3,1.3,39,0.00,,,0.00,VWS V14.01,2013-05-12 21:13:00,
2013-05-12 17:18:00,71.4,44.5,29.44,SW,225,1.3,1.3,38,0.00,,,0.00,VWS V14.01,2013-05-12 21:18:00,
2013-05-12 17:23:00,71.4,45.2,29.44,SW,225,2.0,2.0,39,0.00,,,0.00,VWS V14.01,2013-05-12 21:23:00,
2013-05-12 17:28:00,71.2,45.7,29.44,SW,225,4.7,4.7,40,0.00,,,0.00,VWS V14.01,2013-05-12 21:28:00,
2013-05-12 17:33:00,71.2,45.0,29.44,East,90,2.0,2.0,39,0.00,,,0.00,VWS V14.01,2013-05-12 21:33:00,
2013-05-12 17:38:00,70.9,44.7,29.44,East,90,1.6,1.6,39,0.00,,,0.00,VWS V14.01,2013-05-12 21:38:00,
2013-05-12 17:43:00,70.9,44.7,29.44,WNW,292,3.1,3.1,39,0.00,,,0.00,VWS V14.01,2013-05-12 21:43:00,
2013-05-12 17:48:00,70.9,44.7,29.44,South,180,0.0,0.0,39,0.00,,,0.00,VWS V14.01,2013-05-12 21:48:00,
2013-05-12 17:53:00,70.7,45.2,29.44,SSW,202,2.7,2.7,40,0.00,,,0.00,VWS V14.01,2013-05-12 21:53:00,
2013-05-12 17:59:00,70.5,44.4,29.44,SE,135,0.0,0.0,39,0.00,,,0.00,VWS V14.01,2013-05-12 21:59:00,
2013-05-12 18:04:00,70.5,43.7,29.44,SSE,158,2.5,2.5,38,0.00,,,0.00,VWS V14.01,2013-05-12 22:04:00,
2013-05-12 18:09:00,70.3,44.2,29.44,SE,135,0.9,1.6,39,0.00,,,0.00,VWS V14.01,2013-05-12 22:09:00,
2013-05-12 18:14:00,70.2,43.4,29.47,SE,135,0.9,0.9,38,0.00,,,0.00,VWS V14.01,2013-05-12 22:14:00,
2013-05-12 18:19:00,70.0,43.2,29.47,SSE,158,0.9,0.9,38,0.00,,,0.00,VWS V14.01,2013-05-12 22:19:00,
2013-05-12 18:24:00,70.0,43.2,29.47,NNE,22,0.0,0.0,38,0.00,,,0.00,VWS V14.01,2013-05-12 22:24:00,
2013-05-12 18:29:00,69.8,43.1,29.47,SE,135,3.8,3.8,38,0.00,,,0.00,VWS V14.01,2013-05-12 22:29:00,
2013-05-12 18:34:00,69.6,43.6,29.47,East,90,0.0,1.1,39,0.00,,,0.00,VWS V14.01,2013-05-12 22:34:00,
2013-05-12 18:39:00,69.4,42.8,29.47,WSW,248,1.1,1.1,38,0.00,,,0.00,VWS V14.01,2013-05-12 22:39:00,
2013-05-12 18:44:00,69.3,42.6,29.47,NW,315,0.0,2.0,38,0.00,,,0.00,VWS V14.01,2013-05-12 22:44:00,
2013-05-12 18:49:00,69.3,42.6,29.47,SSE,158,3.1,3.1,38,0.00,,,0.00,VWS V14.01,2013-05-12 22:49:00,
2013-05-12 18:54:00,68.9,42.3,29.47,West,270,0.0,1.3,38,0.00,,,0.00,VWS V14.01,2013-05-12 22:54:00,
2013-05-12 18:59:00,68.7,42.8,29.47,West,270,1.3,1.3,39,0.00,,,0.00,VWS V14.01,2013-05-12 22:59:00,
2013-05-12 19:04:00,68.5,42.0,29.47,WSW,248,0.0,1.1,38,0.00,,,0.00,VWS V14.01,2013-05-12 23:04:00,
2013-05-12 19:09:00,68.4,41.8,29.47,North,0,2.0,2.0,38,0.00,,,0.00,VWS V14.01,2013-05-12 23:09:00,
2013-05-12 19:14:00,68.2,40.9,29.47,NNW,338,2.0,2.0,37,0.00,,,0.00,VWS V14.01,2013-05-12 23:14:00,
2013-05-12 19:19:00,68.0,40.8,29.47,WSW,248,0.0,1.1,37,0.00,,,0.00,VWS V14.01,2013-05-12 23:19:00,
2013-05-12 19:24:00,67.8,42.0,29.47,NE,45,0.0,0.0,39,0.00,,,0.00,VWS V14.01,2013-05-12 23:24:00,
2013-05-12 19:29:00,67.6,41.8,29.50,West,270,1.1,1.6,39,0.00,,,0.00,VWS V14.01,2013-05-12 23:29:00,
2013-05-12 19:34:00,67.5,41.7,29.50,West,270,1.3,1.3,39,0.00,,,0.00,VWS V14.01,2013-05-12 23:34:00,
2013-05-12 19:39:00,67.3,40.8,29.50,East,90,0.0,0.0,38,0.00,,,0.00,VWS V14.01,2013-05-12 23:39:00,
2013-05-12 19:44:00,66.9,41.2,29.50,NW,315,1.3,1.3,39,0.00,,,0.00,VWS V14.01,2013-05-12 23:44:00,
2013-05-12 19:49:00,66.9,41.2,29.50,NNW,338,2.5,2.5,39,0.00,,,0.00,VWS V14.01,2013-05-12 23:49:00,
2013-05-12 19:54:00,66.7,41.7,29.50,NW,315,0.0,0.0,40,0.00,,,0.00,VWS V14.01,2013-05-12 23:54:00,
2013-05-12 19:59:00,66.6,41.5,29.50,WNW,292,1.1,1.1,40,0.00,,,0.00,VWS V14.01,2013-05-12 23:59:00,
2013-05-12 20:04:00,66.2,41.2,29.50,East,90,0.0,0.0,40,0.00,,,0.00,VWS V14.01,2013-05-13 00:04:00,
2013-05-12 20:10:00,66.0,41.0,29.50,NW,315,0.0,0.0,40,0.00,,,0.00,VWS V14.01,2013-05-13 00:10:00,
2013-05-12 20:15:00,65.7,42.0,29.53,West,270,0.0,0.0,42,0.00,,,0.00,VWS V14.01,2013-05-13 00:15:00,
2013-05-12 20:20:00,65.3,41.6,29.53,WNW,292,0.0,0.0,42,0.00,,,0.00,VWS V14.01,2013-05-13 00:20:00,
2013-05-12 20:25:00,65.1,41.5,29.53,West,270,0.0,0.0,42,0.00,,,0.00,VWS V14.01,2013-05-13 00:25:00,
2013-05-12 20:30:00,64.9,41.9,29.53,WNW,292,0.9,0.9,43,0.00,,,0.00,VWS V14.01,2013-05-13 00:30:00,
2013-05-12 20:35:00,64.4,41.4,29.53,West,270,1.3,1.3,43,0.00,,,0.00,VWS V14.01,2013-05-13 00:35:00,
2013-05-12 20:40:00,64.2,41.9,29.53,West,270,0.0,0.0,44,0.00,,,0.00,VWS V14.01,2013-05-13 00:40:00,
2013-05-12 20:45:00,64.0,41.7,29.53,West,270,0.0,0.0,44,0.00,,,0.00,VWS V14.01,2013-05-13 00:45:00,
2013-05-12 20:50:00,63.9,41.5,29.53,West,270,0.0,0.0,44,0.00,,,0.00,VWS V14.01,2013-05-13 00:50:00,
2013-05-12 20:55:00,63.5,41.2,29.53,West,270,0.0,0.0,44,0.00,,,0.00,VWS V14.01,2013-05-13 00:55:00,
2013-05-12 21:00:00,63.3,41.1,29.53,West,270,0.0,0.0,44,0.00,,,0.00,VWS V14.01,2013-05-13 01:00:00,
2013-05-12 21:05:00,63.1,41.5,29.53,WNW,292,0.0,0.0,45,0.00,,,0.00,VWS V14.01,2013-05-13 01:05:00,
2013-05-12 21:10:00,63.0,40.7,29.53,West,270,1.3,1.3,44,0.00,,,0.00,VWS V14.01,2013-05-13 01:10:00,
2013-05-12 21:15:00,62.8,40.6,29.56,WNW,292,0.0,0.0,44,0.00,,,0.00,VWS V14.01,2013-05-13 01:15:00,
2013-05-12 21:20:00,62.6,40.4,29.56,WNW,292,0.0,0.0,44,0.00,,,0.00,VWS V14.01,2013-05-13 01:20:00,
2013-05-12 21:25:00,62.6,41.0,29.56,NW,315,0.0,0.0,45,0.00,,,0.00,VWS V14.01,2013-05-13 01:25:00,
2013-05-12 21:30:00,62.2,40.1,29.56,NW,315,0.0,0.0,44,0.00,,,0.00,VWS V14.01,2013-05-13 01:30:00,
2013-05-12 21:35:00,62.1,40.5,29.56,NW,315,0.0,1.1,45,0.00,,,0.00,VWS V14.01,2013-05-13 01:35:00,
2013-05-12 21:40:00,61.7,39.6,29.56,West,270,0.0,0.0,44,0.00,,,0.00,VWS V14.01,2013-05-13 01:40:00,
2013-05-12 21:45:00,61.3,39.8,29.56,WNW,292,1.6,1.6,45,0.00,,,0.00,VWS V14.01,2013-05-13 01:45:00,
2013-05-12 21:50:00,61.0,39.5,29.56,West,270,0.0,0.0,45,0.00,,,0.00,VWS V14.01,2013-05-13 01:50:00,
2013-05-12 21:55:00,61.0,40.1,29.56,West,270,0.0,0.0,46,0.00,,,0.00,VWS V14.01,2013-05-13 01:55:00,
2013-05-12 22:00:00,60.6,39.8,29.56,NW,315,0.0,0.0,46,0.00,,,0.00,VWS V14.01,2013-05-13 02:00:00,
2013-05-12 22:05:00,60.6,39.8,29.56,WNW,292,0.9,0.9,46,0.00,,,0.00,VWS V14.01,2013-05-13 02:05:00,
2013-05-12 22:11:00,60.4,39.6,29.56,NNW,338,0.0,0.0,46,0.00,,,0.00,VWS V14.01,2013-05-13 02:11:00,
2013-05-12 22:16:00,60.3,40.0,29.59,NNW,338,0.0,0.0,47,0.00,,,0.00,VWS V14.01,2013-05-13 02:16:00,
2013-05-12 22:21:00,60.3,39.4,29.59,WNW,292,0.0,0.0,46,0.00,,,0.00,VWS V14.01,2013-05-13 02:21:00,
2013-05-12 22:26:00,60.1,39.8,29.59,WNW,292,0.0,0.0,47,0.00,,,0.00,VWS V14.01,2013-05-13 02:26:00,
2013-05-12 22:31:00,59.9,39.6,29.59,WNW,292,0.0,0.0,47,0.00,,,0.00,VWS V14.01,2013-05-13 02:31:00,
2013-05-12 22:36:00,59.5,38.2,29.59,WNW,292,0.0,0.0,45,0.00,,,0.00,VWS V14.01,2013-05-13 02:36:00,
2013-05-12 22:41:00,59.4,38.0,29.59,WNW,292,0.0,0.0,45,0.00,,,0.00,VWS V14.01,2013-05-13 02:41:00,
2013-05-12 22:46:00,59.2,38.4,29.59,WNW,292,0.0,0.0,46,0.00,,,0.00,VWS V14.01,2013-05-13 02:46:00,
2013-05-12 22:51:00,58.8,38.1,29.59,WNW,292,0.0,0.0,46,0.00,,,0.00,VWS V14.01,2013-05-13 02:51:00,
2013-05-12 22:56:00,59.0,38.8,29.59,WNW,292,0.0,0.0,47,0.00,,,0.00,VWS V14.01,2013-05-13 02:56:00,
2013-05-12 23:01:00,58.8,38.7,29.56,WNW,292,0.0,0.0,47,0.00,,,0.00,VWS V14.01,2013-05-13 03:01:00,
2013-05-12 23:06:00,58.8,38.7,29.56,East,90,0.0,0.0,47,0.00,,,0.00,VWS V14.01,2013-05-13 03:06:00,
2013-05-12 23:11:00,58.1,38.0,29.56,East,90,0.0,0.0,47,0.00,,,0.00,VWS V14.01,2013-05-13 03:11:00,
2013-05-12 23:16:00,58.1,38.5,29.59,East,90,0.0,0.0,48,0.00,,,0.00,VWS V14.01,2013-05-13 03:16:00,
2013-05-12 23:21:00,58.3,39.2,29.59,East,90,0.0,0.0,49,0.00,,,0.00,VWS V14.01,2013-05-13 03:21:00,
2013-05-12 23:26:00,57.9,38.4,29.59,East,90,0.0,0.0,48,0.00,,,0.00,VWS V14.01,2013-05-13 03:26:00,
2013-05-12 23:31:00,57.4,37.9,29.59,East,90,0.0,0.0,48,0.00,,,0.00,VWS V14.01,2013-05-13 03:31:00,
2013-05-12 23:36:00,57.0,37.5,29.59,ENE,68,0.0,0.0,48,0.00,,,0.00,VWS V14.01,2013-05-13 03:36:00,
2013-05-12 23:41:00,57.4,38.4,29.59,ENE,68,0.0,0.0,49,0.00,,,0.00,VWS V14.01,2013-05-13 03:41:00,
2013-05-12 23:46:00,57.4,38.9,29.59,ENE,68,0.0,0.0,50,0.00,,,0.00,VWS V14.01,2013-05-13 03:46:00,
2013-05-12 23:51:00,57.2,38.8,29.59,ENE,68,0.0,0.0,50,0.00,,,0.00,VWS V14.01,2013-05-13 03:51:00,
2013-05-12 23:56:00,57.2,39.2,29.59,ENE,68,0.0,0.0,51,0.00,,,0.00,VWS V14.01,2013-05-13 03:56:00,